Weather History for Venice, FL

Change the Weather History Date:

Tuesday, November 20, 2012

  Actual Average Record
Temperature  
Mean Temperature 62 °F -  
Max Temperature 68 °F 78 °F 86 °F (2011)
Min Temperature 57 °F 58 °F 42 °F (1968)
Degree Days  
Heating Degree Days 2    
Growing Degree Days 12 (Base 50)    
Moisture  
Dew Point 57 °F    
Average Humidity 80    
Maximum Humidity 94    
Minimum Humidity 68    
Precipitation  
Precipitation 0.00 in - - ()
Sea Level Pressure  
Sea Level Pressure 30.06 in    
Wind  
Wind Speed 10 mph (NNW)    
Max Wind Speed 16 mph    
Max Gust Speed 23 mph    
Visibility 10 miles    
Events      
Averages and records for this station are not official NWS values.
T = Trace of Precipitation, MM = Missing Value Source: NWS Daily Summary

Daily Weather History Graph

Daily Weather History Graph

Search for Another Location

Airport:

Trip Planner

Search our weather history database for the weather conditions in past years. The results will help you decide how hot, cold, wet, or windy it might be!

Date:

Astronomy

Nov. 20, 2012 Rise Set
Actual Time 6:53 AM EST 5:36 PM EST
Civil Twilight 6:29 AM EST 6:01 PM EST
Nautical Twilight 6:00 AM EST 6:30 PM EST
Astronomical Twilight 5:32 AM EST 6:57 PM EST
Moon 12:46 PM EST (11/20) No Moon Set
Length of Visible Light 11h 32m
Length of Day
10h 42m
Waxing Crescent, 51% of the Moon is Illuminated
Nov 20
Waxing Crescent
Nov 28
Full
Dec 6
Last Quarter
Dec 13
New
Dec 20
First Quarter

Hourly Weather History & Observations

Time (EST) Temp. Dew Point Humidity Pressure Visibility Wind Dir Wind Speed Gust Speed Precip Events Conditions
12:15 AM 59.0 °F 53.6 °F 82% 30.11 in 10.0 mi NNE 15.0 mph - N/A   Unknown
12:35 AM 59.0 °F 53.6 °F 82% 30.11 in 10.0 mi NNE 12.7 mph - N/A   Unknown
12:55 AM 57.2 °F 53.6 °F 88% 30.10 in 10.0 mi NNE 12.7 mph - N/A   Unknown
1:15 AM 57.2 °F 53.6 °F 88% 30.09 in 10.0 mi NNE 11.5 mph 18.4 mph N/A   Unknown
1:35 AM 57.2 °F 53.6 °F 88% 30.09 in 10.0 mi NE 11.5 mph - N/A   Unknown
1:55 AM 57.2 °F 53.6 °F 88% 30.09 in 10.0 mi NNE 6.9 mph - N/A   Unknown
2:15 AM 57.2 °F 53.6 °F 88% 30.08 in 10.0 mi North 5.8 mph - N/A   Unknown
2:35 AM 57.2 °F 53.6 °F 88% 30.08 in 10.0 mi NNW 4.6 mph - N/A   Unknown
2:55 AM 57.2 °F 53.6 °F 88% 30.08 in 10.0 mi North 4.6 mph - N/A   Unknown
3:15 AM 57.2 °F 53.6 °F 88% 30.07 in 10.0 mi NNW 3.5 mph - N/A   Unknown
3:35 AM 57.2 °F 53.6 °F 88% 30.07 in 10.0 mi North 4.6 mph - N/A   Unknown
7:15 AM 59.0 °F 55.4 °F 88% 30.09 in 10.0 mi NNW 5.8 mph - N/A   Overcast
7:35 AM 59.0 °F 55.4 °F 88% 30.09 in 10.0 mi NNW 4.6 mph - N/A   Overcast
7:55 AM 60.8 °F 55.4 °F 82% 30.10 in 10.0 mi NNW 6.9 mph - N/A   Overcast
8:15 AM 60.8 °F 55.4 °F 82% 30.10 in 10.0 mi North 6.9 mph - N/A   Overcast
8:35 AM 62.6 °F 55.4 °F 77% 30.11 in 10.0 mi North 9.2 mph - N/A   Overcast
8:55 AM 62.6 °F 55.4 °F 77% 30.11 in 10.0 mi NNW 11.5 mph - N/A   Overcast
9:15 AM 62.6 °F 55.4 °F 77% 30.11 in 10.0 mi North 9.2 mph - N/A   Overcast
9:35 AM 64.4 °F 55.4 °F 73% 30.11 in 10.0 mi North 9.2 mph - N/A   Overcast
9:55 AM 64.4 °F 55.4 °F 73% 30.11 in 10.0 mi North 8.1 mph - N/A   Overcast
10:15 AM 66.2 °F 55.4 °F 68% 30.10 in 10.0 mi NNE 9.2 mph - N/A   Mostly Cloudy
10:35 AM 66.2 °F 55.4 °F 68% 30.10 in 10.0 mi North 11.5 mph - N/A   Clear
10:55 AM 68.0 °F 57.2 °F 68% 30.09 in 10.0 mi NNW 9.2 mph - N/A   Scattered Clouds
11:15 AM 68.0 °F 57.2 °F 68% 30.09 in 10.0 mi NW 12.7 mph 16.1 mph N/A   Mostly Cloudy
11:35 AM 66.2 °F 57.2 °F 73% 30.08 in 10.0 mi NW 13.8 mph 18.4 mph N/A   Overcast
11:55 AM 66.2 °F 57.2 °F 73% 30.07 in 10.0 mi NW 15.0 mph - N/A   Overcast
12:15 PM 68.0 °F 57.2 °F 68% 30.06 in 9.0 mi NW 16.1 mph - N/A   Overcast
12:35 PM 68.0 °F 57.2 °F 68% 30.05 in 10.0 mi NW 13.8 mph 20.7 mph N/A   Overcast
12:55 PM 68.0 °F 57.2 °F 68% 30.04 in 10.0 mi NW 13.8 mph - N/A   Mostly Cloudy
1:35 PM 68.0 °F 59.0 °F 73% 30.03 in 10.0 mi NW 13.8 mph 19.6 mph N/A   Partly Cloudy
1:55 PM 68.0 °F 59.0 °F 73% 30.02 in 10.0 mi WNW 16.1 mph 21.9 mph N/A   Clear
2:15 PM 68.0 °F 59.0 °F 73% 30.02 in 10.0 mi NW 13.8 mph 20.7 mph N/A   Clear
2:35 PM 68.0 °F 59.0 °F 73% 30.01 in 10.0 mi NW 15.0 mph 23.0 mph N/A   Clear
3:15 PM 68.0 °F 59.0 °F 73% 30.01 in 10.0 mi NNW 13.8 mph - N/A   Clear
3:35 PM 68.0 °F 57.2 °F 68% 30.01 in 10.0 mi NW 13.8 mph 18.4 mph N/A   Clear
3:55 PM 66.2 °F 59.0 °F 78% 30.00 in 10.0 mi NW 13.8 mph - N/A   Clear
4:15 PM 66.2 °F 59.0 °F 78% 30.00 in 10.0 mi NW 16.1 mph - N/A   Clear
4:35 PM 66.2 °F 59.0 °F 78% 30.00 in 10.0 mi NW 13.8 mph - N/A   Clear
4:55 PM 66.2 °F 59.0 °F 78% 30.00 in 10.0 mi NW 11.5 mph - N/A   Clear
5:15 PM 66.2 °F 59.0 °F 78% 30.00 in 10.0 mi NW 12.7 mph - N/A   Clear
5:35 PM 64.4 °F 59.0 °F 83% 30.00 in 10.0 mi NW 12.7 mph - N/A   Clear
5:55 PM 64.4 °F 59.0 °F 83% 30.01 in 10.0 mi NW 10.4 mph - N/A   Unknown
6:15 PM 66.2 °F 59.0 °F 78% 30.01 in 10.0 mi NW 11.5 mph - N/A   Unknown
6:35 PM 66.2 °F 59.0 °F 78% 30.01 in 10.0 mi NNW 13.8 mph - N/A   Unknown
6:55 PM 66.2 °F 59.0 °F 78% 30.02 in 10.0 mi NNW 10.4 mph - N/A   Unknown
7:15 PM 64.4 °F 59.0 °F 83% 30.03 in 10.0 mi NNW 10.4 mph 16.1 mph N/A   Unknown
7:35 PM 64.4 °F 59.0 °F 83% 30.04 in 10.0 mi North 6.9 mph - N/A   Unknown
7:55 PM 64.4 °F 57.2 °F 77% 30.04 in 10.0 mi North 8.1 mph - N/A   Unknown
8:15 PM 64.4 °F 57.2 °F 77% 30.05 in 10.0 mi North 6.9 mph - N/A   Unknown
8:35 PM 64.4 °F 57.2 °F 77% 30.05 in 10.0 mi NNW 8.1 mph - N/A   Unknown
8:55 PM 64.4 °F 57.2 °F 77% 30.05 in 10.0 mi North 6.9 mph - N/A   Unknown
9:15 PM 62.6 °F 57.2 °F 82% 30.05 in 10.0 mi North 5.8 mph - N/A   Unknown
9:35 PM 62.6 °F 57.2 °F 82% 30.06 in 10.0 mi North 6.9 mph - N/A   Unknown
9:55 PM 62.6 °F 57.2 °F 82% 30.06 in 10.0 mi North 6.9 mph - N/A   Unknown
10:15 PM 62.6 °F 57.2 °F 82% 30.06 in 10.0 mi North 6.9 mph - N/A   Unknown
10:35 PM 60.8 °F 59.0 °F 94% 30.07 in 10.0 mi North 8.1 mph - N/A   Unknown
10:55 PM 60.8 °F 57.2 °F 88% 30.07 in 10.0 mi NNE 6.9 mph - N/A   Unknown
11:15 PM 59.0 °F 57.2 °F 94% 30.06 in 10.0 mi NNE 6.9 mph - N/A   Unknown
11:35 PM 59.0 °F 57.2 °F 94% 30.06 in 10.0 mi NNE 5.8 mph - N/A   Unknown
11:55 PM 59.0 °F 57.2 °F 94% 30.06 in 10.0 mi NNE 5.8 mph - N/A   Unknown